Meteopurmerend
purmerend
Purmerend - Baaienwijk



My webcam  My webcam


waarschuwing voor Onweer Meer informatie blitzortung!


Regen radar Meer informatie rain snow radar


Bezoek onze andere website:

CandyAppleRed WebdesignWebdesign Purmerend Candy Apple Red

MeteopurmerendBlog

Template documentation
and downloads



Onweer van: 26-07-2021 13:00 tot: 21:00 waarschuwing voor: Onweer niveau: Geel info button
Enkele onweersbuien, lokaal met hagel en veel neerslag in korte tijd.Kans op blikseminslag, hagel en veel neerslag in korte tijd.Verkeer en buitenactiviteiten kunnen hinder ondervinden.Mijd open water en open gebied, schuil niet onder bomen.Volg weerberichten en waarschuwingen.

15 daagse weersverwachting Sheffield (GB)

  • Overzicht
  • Per uur
  • 15 dagen
  • Extra
  • Vergelijk
  • Kaarten
  • Dagkaart
  • Meer »
  • Info
  • Statistieken
  • Directe link
    Temp 6h Neerslag Wind  
 05:15     21:11    Daglengte: 15:56 Vandaag
19:00
23°
 
2
 05:17     21:09    Daglengte: 15:52 Morgen
01:00
17°
 
2
07:00
16°
 
1
13:00
22°
 
2
19:00
19°
0.9 mm
2
 05:18     21:07    Daglengte: 15:49 Woensdag 28 Jul
01:00
17°
 
2
07:00
15°
15.0 mm
5
13:00
18°
23.2 mm
6
19:00
16°
36.4 mm
5
 05:20     21:06    Daglengte: 15:46 Donderdag 29 Jul
01:00
12°
12.5 mm
5
07:00
13°
 
6
Locatie info
Region: England
Latitude: 53.3831°N
Longitude: -1.4646°E
75 masl
Postcode: S1 2
Temp/Neerslag /Baro Onweer/Dauwpunt
    Temp Baro 1h Neerslag Dauwpunt Wind UV Bewolking  
 05:15     21:11    Daglengte: 15:56 Vandaag
16:00
24°
1008.0 hPa   13.3°
3
Windvlaag: 0.2 m/s
19%
17:00
24°
1007.8 hPa   13.8°
3
Windvlaag: 0.8 m/s
3%
18:00
24°
1007.6 hPa   13.8°
3
Windvlaag: 1.1 m/s
23%
19:00
23°
1007.5 hPa   13.9°
2
Windvlaag: 0.7 m/s
37%
20:00
22°
1007.6 hPa   13.8°
2
Windvlaag: 0.4 m/s
8%
21:00
21°
1007.7 hPa   15.2°
1
Windvlaag: 0.5 m/s
12%
22:00
19°
1008.0 hPa   15.2°
1
Windvlaag: 1 m/s
30%
23:00
18°
1007.9 hPa   15.3°
2
Windvlaag: 1.3 m/s
55%
 05:17     21:09    Daglengte: 15:52 Morgen
00:00
18°
1007.9 hPa   15.0°
2
Windvlaag: 1.4 m/s
60%
01:00
17°
1007.8 hPa
20%
15.0°
2
Windvlaag: 1.3 m/s
64%
02:00
17°
1007.7 hPa
20%
14.9°
2
Windvlaag: 1.1 m/s
71%
03:00
17°
1007.3 hPa   14.9°
2
Windvlaag: 1.1 m/s
71%
04:00
16°
1006.9 hPa   14.8°
2
Windvlaag: 1.2 m/s
81%
05:00
16°
1006.7 hPa   14.7°
2
Windvlaag: 1.4 m/s
73%
06:00
16°
1006.8 hPa   14.6°
2
Windvlaag: 1.6 m/s
74%
07:00
16°
1006.9 hPa   14.4°
1
Windvlaag: 1.6 m/s
77%
08:00
17°
1007.0 hPa   14.2°
1
Windvlaag: 1.4 m/s
77%
09:00
18°
1007.0 hPa   13.8°
1
Windvlaag: 1 m/s
78%
10:00
19°
1006.9 hPa   13.8°
1
Windvlaag: 2.7 m/s
75%
11:00
20°
1006.7 hPa   13.6°
1
Windvlaag: 4.2 m/s
65%
12:00
21°
1006.4 hPa
16%
13.4°
2
Windvlaag: 4.8 m/s
77%
13:00
22°
1006.0 hPa
20%
12.6°
2
Windvlaag: 5.5 m/s
69%
14:00
22°
1005.7 hPa
70%
12.1°
2
Windvlaag: 5.6 m/s
57%
15:00
23°
1005.3 hPa
82%
12.4°
2
Windvlaag: 6 m/s
68%
16:00
22°
1005.1 hPa
82%
14.3°
2
Windvlaag: 6.4 m/s
74% warningclass
17:00
21°
1005.0 hPa 0.9 mm
82%
16.2°
2
Windvlaag: 5.5 m/s
79% warningclass
18:00
20°
1004.9 hPa
82%
16.1°
2
Windvlaag: 4.5 m/s
83%
19:00
19°
1004.9 hPa
74%
14.7°
2
Windvlaag: 4.3 m/s
85%
20:00
18°
1005.0 hPa
73%
14.7°
2
Windvlaag: 3.5 m/s
45%
21:00
18°
1004.9 hPa
32%
14.5°
2
Windvlaag: 2.6 m/s
21%
22:00
17°
1005.1 hPa
28%
14.1°
2
Windvlaag: 2.4 m/s
69%
23:00
17°
1004.8 hPa
33%
13.9°
2
Windvlaag: 2.3 m/s
68%
 05:18     21:07    Daglengte: 15:49 Woensdag 28 Jul
00:00
17°
1004.7 hPa
25%
13.8°
2
Windvlaag: 1.9 m/s
64%
01:00
17°
1004.1 hPa
30%
14.0°
2
Windvlaag: 1.4 m/s
59%
02:00
16°
1003.8 hPa
74%
13.8°
3
Windvlaag: 1.2 m/s
62%
03:00
16°
1003.6 hPa 7.2 mm
81%
13.5°
4
Windvlaag: 2 m/s
86%
04:00
15°
1003.4 hPa 7.8 mm
82%
13.3°
4
Windvlaag: 1.8 m/s
86%
05:00
15°
1003.3 hPa
77%
12.9°
4
Windvlaag: 2.2 m/s
23%
06:00
15°
1003.4 hPa
26%
11.8°
5
Windvlaag: 2.1 m/s
49%
07:00
15°
1003.6 hPa
15%
11.5°
5
Windvlaag: 2.5 m/s
25%
08:00
15°
1003.7 hPa
23%
11.2°
5
Windvlaag: 2.5 m/s
40%
09:00
16°
1003.9 hPa
25%
10.8°
5
Windvlaag: 4 m/s
15%
10:00
17°
1003.3 hPa 11.6 mm
21%
10.7°
5
Windvlaag: 3.3 m/s
68%
11:00
17°
1003.1 hPa 11.6 mm
78%
10.3°
5
Windvlaag: 3.5 m/s
81%
12:00
18°
1003.0 hPa
44%
10.1°
5
Windvlaag: 3.3 m/s
30%
13:00
18°
1002.9 hPa
48%
8.2°
6
Windvlaag: 3 m/s
38%
14:00
18°
1002.8 hPa
90%
8.5°
5
Windvlaag: 2.7 m/s
74%
15:00
18°
1002.5 hPa 11.8 mm
92%
9.9°
5
Windvlaag: 4.3 m/s
70%
16:00
18°
1002.3 hPa 12.2 mm
92%
12.1°
5
Windvlaag: 4.3 m/s
69%
17:00
17°
1002.1 hPa 12.4 mm
36%
8.5°
5
Windvlaag: 4.5 m/s
66%
18:00
17°
1002.0 hPa
31%
8.0°
5
Windvlaag: 3.9 m/s
71%
19:00
16°
1001.9 hPa
28%
11.0°
5
Windvlaag: 4.6 m/s
57%
20:00
15°
1002.1 hPa
22%
10.0°
4
Windvlaag: 4.1 m/s
58%
21:00
14°
1002.3 hPa
21%
9.6°
4
Windvlaag: 4.6 m/s
15%
22:00
14°
1002.4 hPa
21%
9.3°
4
Windvlaag: 4 m/s
15%
23:00
13°
1002.3 hPa
21%
7.8°
5
Windvlaag: 3.5 m/s
15%
 05:20     21:06    Daglengte: 15:46 Donderdag 29 Jul
00:00
13°
1002.1 hPa
21%
8.5°
5
Windvlaag: 4.6 m/s
18%
01:00
12°
1002.1 hPa 12.5 mm
21%
8.8°
5
Windvlaag: 4.8 m/s
26%
02:00
12°
1001.9 hPa
21%
9.0°
5
Windvlaag: 4.8 m/s
19%
03:00
12°
1001.9 hPa
21%
9.8°
4
Windvlaag: 3.3 m/s
31%
04:00
12°
1001.9 hPa
21%
10.3°
5
Windvlaag: 3.7 m/s
17%
05:00
12°
1002.1 hPa
22%
10.3°
5
Windvlaag: 5.2 m/s
14%
06:00
12°
1002.3 hPa
21%
10.5°
5
Windvlaag: 5.8 m/s
34%
07:00
13°
1002.5 hPa
21%
10.1°
6
Windvlaag: 7 m/s
58%
08:00
14°
1004.6 hPa
21%
9.6°
6
Windvlaag: 14.1 m/s
19%
09:00
15°
1005.0 hPa
22%
10.7°
6
Windvlaag: 14 m/s
23%
10:00
16°
1005.3 hPa
21%
11.5°
6
Windvlaag: 14.3 m/s
19%
11:00
17°
1005.6 hPa
21%
11.4°
6
Windvlaag: 14.1 m/s
18%
12:00
18°
1005.7 hPa
21%
13.3°
6
Windvlaag: 15.5 m/s
67%
13:00
19°
1005.7 hPa
21%
13.1°
6
Windvlaag: 14.2 m/s
52%
Temp/Neerslag /Baro Onweer/Dauwpunt
    Temp Baro Neerslag Dauwpunt Wind Bewolking  
 05:15     21:11    Daglengte: 15:56 Vandaag
16:00
24°
1008.0 hPa   13.3°
3
19%
19:00
23°
1007.5 hPa   13.9°
2
37%
22:00
19°
1008.0 hPa   15.2°
1
30%
 05:17     21:09    Daglengte: 15:52 Morgen
01:00
17°
1007.8 hPa   15.0°
2
64%
04:00
16°
1006.9 hPa   14.8°
2
81%
07:00
16°
1006.9 hPa   14.4°
1
77%
10:00
19°
1006.9 hPa   13.8°
1
75%
13:00
22°
1006.0 hPa   12.6°
2
69%
16:00
22°
1005.1 hPa   14.3°
2
74% warningclass
19:00
19°
1004.9 hPa 0.9 mm 14.7°
2
85%
22:00
17°
1005.1 hPa   14.1°
2
69%
 05:18     21:07    Daglengte: 15:49 Woensdag 28 Jul
01:00
17°
1004.1 hPa   14.0°
2
59%
04:00
15°
1003.4 hPa 15.0 mm 13.3°
4
86%
07:00
15°
1003.6 hPa   11.5°
5
25%
10:00
17°
1003.3 hPa 11.6 mm 10.7°
5
68%
13:00
18°
1002.9 hPa 11.6 mm 8.2°
6
38%
16:00
18°
1002.3 hPa 24.0 mm 12.1°
5
69%
19:00
16°
1001.9 hPa 12.4 mm 11.0°
5
57%
22:00
14°
1002.4 hPa   9.3°
4
15%
 05:20     21:06    Daglengte: 15:46 Donderdag 29 Jul
01:00
12°
1002.1 hPa 12.5 mm 8.8°
5
26%
04:00
12°
1001.9 hPa   10.3°
5
17%
07:00
13°
1002.5 hPa   10.1°
6
58%
10:00
16°
1005.3 hPa   11.5°
6
19%
13:00
19°
1005.7 hPa   13.1°
6
52%
16:00
16°
1007.0 hPa 11.1 mm 12.3°
7
1%
19:00
15°
1007.5 hPa 11.1 mm 11.7°
6
1%
22:00
14°
1008.3 hPa 11.1 mm 12.6°
4
1%
 05:22     21:04    Daglengte: 15:42 Vrijdag 30 Jul
01:00
14°
1008.7 hPa 11.1 mm 11.8°
4
1%
04:00
14°
1008.0 hPa 11.1 mm 11.4°
3
1%
07:00
15°
1008.1 hPa 11.1 mm 11.0°
2
1%
10:00
18°
1007.5 hPa 11.1 mm 11.0°
2
1%
13:00
17°
1006.5 hPa 11.2 mm 10.9°
2
1%
16:00
17°
1005.6 hPa 11.9 mm 8.0°
2
1%
19:00
15°
1004.4 hPa 13.6 mm 13.4°
2
1%
22:00
14°
1004.1 hPa 15.9 mm 13.9°
2
1%
 05:23     21:02    Daglengte: 15:39 Zaterdag 31 Jul
01:00
13°
1003.8 hPa 17.6 mm 13.3°
2
1%
04:00
14°
1003.1 hPa 18.9 mm 13.5°
4
1%
07:00
14°
1004.2 hPa 21.7 mm 13.2°
4
1%
10:00
16°
1005.1 hPa 22.2 mm 12.7°
3
1%
13:00
18°
1005.7 hPa 23.6 mm 13.0°
3
1%
16:00
15°
1006.8 hPa 26.5 mm 13.7°
4
1%
19:00
16°
1007.2 hPa 26.8 mm 10.8°
4
1%
22:00
12°
1008.3 hPa 26.8 mm 10.2°
2
0%
 05:25     21:00    Daglengte: 15:35 Zondag 01 Aug
01:00
12°
1008.2 hPa 27.0 mm 11.4°
1
1%
04:00
12°
1008.2 hPa 27.1 mm 10.9°
2
1%
07:00
12°
1009.1 hPa 27.3 mm 10.8°
2
1%
10:00
14°
1010.1 hPa 27.4 mm 8.6°
2
1%
13:00
17°
1010.7 hPa 27.7 mm 9.2°
3
1%
16:00
16°
1011.6 hPa 28.0 mm 7.7°
2
1%
19:00
15°
1012.7 hPa 28.2 mm 9.3°
1
1%
22:00
14°
1013.8 hPa 28.3 mm 9.7°
0
1%
 05:26     20:59    Daglengte: 15:33 Maandag 02 Aug
01:00
13°
1014.3 hPa 28.3 mm 10.0°
2
1%
04:00
10°
1014.5 hPa 28.3 mm 8.5°
3
0%
07:00
12°
1014.9 hPa 28.3 mm 8.9°
4
0%
10:00
15°
1015.2 hPa 28.3 mm 8.5°
5
1%
13:00
17°
1015.1 hPa 56.6 mm 7.7°
5
1%
19:00
17°
1014.0 hPa 56.7 mm 8.9°
5
1%
 05:28     20:57    Daglengte: 15:29 Dinsdag 03 Aug
01:00
12°
1014.2 hPa 56.7 mm 9.0°
2
1%
07:00
13°
1011.8 hPa 56.7 mm 10.0°
3
1%
13:00
17°
1008.6 hPa 58.2 mm 14.8°
7
1%
19:00
18°
1006.4 hPa 62.1 mm 13.4°
6
1%
 05:30     20:55    Daglengte: 15:25 Woensdag 04 Aug
01:00
15°
1004.9 hPa 62.4 mm 12.9°
6
1%
07:00
14°
1004.4 hPa 63.3 mm 11.0°
6
1%
13:00
19°
1004.9 hPa 63.4 mm 9.6°
7
0%
19:00
18°
1005.2 hPa 63.4 mm 10.0°
5
0%
 05:31     20:53    Daglengte: 15:22 Donderdag 05 Aug
01:00
13°
1005.6 hPa 63.4 mm 11.0°
4
0%
07:00
14°
1004.1 hPa 63.5 mm 11.4°
3
1%
13:00
18°
1006.9 hPa   11.6°
3
69%
19:00
18°
1006.1 hPa 1.8 mm 11.6°
3
69%
 05:33     20:51    Daglengte: 15:18 Vrijdag 06 Aug
01:00
14°
1007.1 hPa 0.7 mm 10.3°
2
65%
07:00
13°
1006.9 hPa 0.2 mm 10.2°
2
69%
13:00
18°
1006.8 hPa 0.9 mm 10.8°
2
78%
19:00
17°
1006.6 hPa 1.6 mm 11.2°
3
78%
 05:35     20:49    Daglengte: 15:14 Zaterdag 07 Aug
01:00
13°
1007.9 hPa 0.6 mm 10.1°
2
67%
07:00
13°
1008.1 hPa 0.4 mm 10.1°
3
72%
13:00
18°
1008.7 hPa 0.8 mm 10.6°
4
73%
19:00
17°
1008.6 hPa 1.3 mm 10.3°
4
74%
 05:37     20:47    Daglengte: 15:10 Zondag 08 Aug
01:00
13°
1009.5 hPa 0.5 mm 9.9°
3
64%
07:00
13°
1009.0 hPa 0.4 mm 10.6°
3
69%
13:00
18°
1009.5 hPa 0.8 mm 10.8°
4
65%
19:00
17°
1009.6 hPa 1.4 mm 10.8°
4
72%
 05:38     20:45    Daglengte: 15:07 Maandag 09 Aug
01:00
13°
1010.9 hPa 0.7 mm 10.0°
3
68%
07:00
13°
1011.1 hPa 0.5 mm 10.0°
3
61%
13:00
18°
1012.4 hPa 0.5 mm 10.1°
4
67%
19:00
18°
1012.9 hPa 0.5 mm 10.1°
4
60%
 05:40     20:43    Daglengte: 15:03 Dinsdag 10 Aug
01:00
13°
1014.4 hPa 0.4 mm 9.7°
3
60%
07:00
13°
1014.1 hPa 0.6 mm 10.5°
3
66%
13:00
19°
1014.4 hPa 0.5 mm 10.9°
3
66%
  CAPE Lifted Index Hail Supercell Tornado SRH 3km CL BTM PRES CL TOP PRES Swiss DWD icon SMHI TS
 05:15     21:11    Daglengte: 15:56 Vandaag
16:00 34 J/kg -0.1 K 0 % 0 % 0 % 0 m²/s² 0 0 3.56 2
17:00 8 J/kg 0.3 K 0 % 0 % 0 % 0 m²/s² 0 0 3.87 2
18:00 15 J/kg 0.0 K 0 % 0 % 0 % 0 m²/s² 0 0 3.48 1
19:00 42 J/kg -0.5 K 0 % 0 % 0 % 0 m²/s² 0 0 2.98 3
20:00 118 J/kg -1.1 K 0 % 0 % 0 % 0 m²/s² 0 0 2.38 2
21:00 110 J/kg -1.2 K 0 % 0 % 0 % 0 m²/s² 0 0 2.37 2
22:00 114 J/kg -1.2 K 0 % 0 % 0 % 0 m²/s² 0 0 1.83 3
23:00 10 J/kg -0.1 K 0 % 0 % 0 % 0 m²/s² 0 0 2.54 3
 05:17     21:09    Daglengte: 15:52 Morgen
00:00 0 J/kg -0.3 K 0 % 0 % 0 % 0 m²/s² 0 0 2.04 3
01:00 0 J/kg -0.8 K 0 % 0 % 0 % 0 m²/s² 0 0 2.65 3
02:00 0 J/kg -0.8 K 0 % 0 % 0 % 0 m²/s² 0 0 2.83 3
03:00 0 J/kg -0.9 K 0 % 0 % 0 % 0 m²/s² 0 0 2.19 3
04:00 0 J/kg -0.5 K 0 % 0 % 0 % 0 m²/s² 0 0 1.96 3
05:00 0 J/kg 0.6 K 0 % 0 % 0 % 0 m²/s² 0 0 2.52 3
06:00 0 J/kg 2.0 K 0 % 0 % 0 % 0 m²/s² 0 0 3.8 3
07:00 0 J/kg 1.8 K 0 % 0 % 0 % 0 m²/s² 0 0 3.36 3
08:00 0 J/kg 0.6 K 0 % 0 % 0 % 0 m²/s² 0 0 2.16 3
09:00 33 J/kg -0.1 K 0 % 0 % 0 % 0 m²/s² 0 0 1.46 3
10:00 172 J/kg -0.9 K 0 % 0 % 0 % 0 m²/s² 0 0 0.48 3
11:00 249 J/kg -1.3 K 0 % 0 % 0 % 0 m²/s² 0 0 0.26 3
12:00 345 J/kg -1.9 K 0 % 0 % 0 % 0 m²/s² 0 0 -0.4 3
13:00 389 J/kg -2.2 K 0 % 0 % 0 % 0 m²/s² 0 0 -0.7 3
14:00 439 J/kg -2.4 K 0 % 0 % 0 % 0 m²/s² 0 0 -0.96 3
15:00 517 J/kg -2.6 K 0 % 0 % 0 % 0 m²/s² 0 0 -1.25 80
16:00 622 J/kg -2.8 K 0 % 0 % 0 % 0 m²/s² 0 0 -1.78 95
17:00 686 J/kg -2.9 K 0 % 0 % 0 % 0 m²/s² 0 0 -2.87 80
18:00 547 J/kg -2.1 K 0 % 0 % 0 % 0 m²/s² 0 0 -2.07 61
19:00 77 J/kg -0.3 K 0 % 0 % 0 % 0 m²/s² 0 0 -0.09 3
20:00 66 J/kg 0.1 K 0 % 0 % 0 % 0 m²/s² 0 0 0.52 3
21:00 0 J/kg 0.1 K 0 % 0 % 0 % 0 m²/s² 0 0 0.79 2
22:00 30 J/kg 0.1 K 0 % 0 % 0 % 0 m²/s² 0 0 0.4 3
23:00 0 J/kg 1.0 K 0 % 0 % 0 % 0 m²/s² 0 0 1.21 3
 05:18     21:07    Daglengte: 15:49 Woensdag 28 Jul
00:00 8 J/kg 1.1 K 0 % 0 % 0 % 0 m²/s² 0 0 1.19 3
01:00 13 J/kg 0.7 K 0 % 0 % 0 % 0 m²/s² 0 0 0.82 3
02:00 19 J/kg 0.1 K 0 % 0 % 0 % 0 m²/s² 0 0 0.58 3
03:00 5 J/kg 0.2 K 0 % 0 % 0 % 0 m²/s² 0 0 1.37 61
04:00 0 J/kg 0.4 K 0 % 0 % 0 % 0 m²/s² 0 0 1.51 61
05:00 0 J/kg 1.1 K 0 % 0 % 0 % 0 m²/s² 0 0 1.73 2
06:00 0 J/kg 2.1 K 0 % 0 % 0 % 0 m²/s² 0 0 2.52 3
07:00 0 J/kg 2.6 K 0 % 0 % 0 % 0 m²/s² 0 0 3.38 2
08:00 1 J/kg 2.3 K 0 % 0 % 0 % 0 m²/s² 0 0 3.47 3
09:00 10 J/kg 1.8 K 0 % 0 % 0 % 0 m²/s² 0 0 2.76 2
10:00 139 J/kg 0.4 K 0 % 0 % 0 % 0 m²/s² 0 0 1.36 3
11:00 332 J/kg -1.4 K 0 % 0 % 0 % 0 m²/s² 0 0 -1.16 3
12:00 576 J/kg -2.5 K 0 % 0 % 0 % 0 m²/s² 0 0 -0.31 2
13:00 390 J/kg -1.8 K 0 % 0 % 0 % 0 m²/s² 0 0 1.38 1
14:00 321 J/kg -1.3 K 0 % 0 % 0 % 0 m²/s² 0 0 0.26 3
15:00 458 J/kg -1.9 K 0 % 0 % 0 % 0 m²/s² 0 0 -1.15 3
16:00 448 J/kg -2.1 K 0 % 0 % 0 % 0 m²/s² 0 0 -1.14 3
17:00 372 J/kg -2.0 K 0 % 0 % 0 % 0 m²/s² 0 0 -0.38 3
18:00 477 J/kg -2.5 K 0 % 0 % 0 % 0 m²/s² 0 0 0.08 3
19:00 336 J/kg -2.6 K 0 % 0 % 0 % 0 m²/s² 0 0 1.06 3
20:00 550 J/kg -3.5 K 0 % 0 % 0 % 0 m²/s² 0 0 0.04 3
21:00 689 J/kg -4.1 K 0 % 0 % 0 % 0 m²/s² 0 0 -1.67 1
22:00 470 J/kg -2.4 K 0 % 0 % 0 % 0 m²/s² 0 0 -0.87 1
23:00 37 J/kg 0.3 K 0 % 0 % 0 % 0 m²/s² 0 0 1.71 1
 05:20     21:06    Daglengte: 15:46 Donderdag 29 Jul
00:00 67 J/kg -0.4 K 0 % 0 % 0 % 0 m²/s² 0 0 2.06 2
01:00 17 J/kg 0.2 K 0 % 0 % 0 % 0 m²/s² 0 0 1.52 2
02:00 0 J/kg 0.9 K 0 % 0 % 0 % 0 m²/s² 0 0 2.34 1
03:00 0 J/kg 0.8 K 0 % 0 % 0 % 0 m²/s² 0 0 3.83 1
04:00 0 J/kg 0.2 K 0 % 0 % 0 % 0 m²/s² 0 0 3.74 1
05:00 29 J/kg 0.4 K 0 % 0 % 0 % 0 m²/s² 0 0 3.43 2
06:00 21 J/kg 0.9 K 0 % 0 % 0 % 0 m²/s² 0 0 2.88 2
07:00 33 J/kg 0.7 K 0 % 0 % 0 % 0 m²/s² 0 0 2.44 2
08:00 23 J/kg 0.5 K 0 % 0 % 0 % 0 m²/s² 0 0 1.7 2
09:00 63 J/kg 0.0 K 0 % 0 % 0 % 0 m²/s² 0 0 1.62 1
10:00 137 J/kg -0.3 K 0 % 0 % 0 % 0 m²/s² 0 0 1.98 1
11:00 143 J/kg 0.2 K 0 % 0 % 0 % 0 m²/s² 0 0 1.31 2
12:00 47 J/kg 0.6 K 0 % 0 % 0 % 0 m²/s² 0 0 0.93 3
13:00 96 J/kg 0.1 K 0 % 0 % 0 % 0 m²/s² 0 0 0.43 3
Temp Baro Wind Neerslag
  EWN Forecast EWN WRFDA DWD ICON FMI HIRLAM MET Norway GFS
 05:15     21:11    Daglengte: 15:56 Vandaag
16:00 23.9° 1008.0 hPa 2.6 m/s 0.0 mm 24.6° 1006.8 hPa 2.7 m/s 0.0 mm 24.7° 1008.1 hPa 2.6 m/s -2.0 mm 22.5° 1008.1 hPa 2.1 m/s 0.0 mm 24.9° 1007.5 hPa 2.9 m/s
19:00 23.1° 1007.5 hPa 2.4 m/s 0.0 mm 24.0° 1006.1 hPa 3.4 m/s 0.0 mm 23.8° 1007.0 hPa 2.4 m/s 0.0 mm 22.1° 1007.7 hPa 1.4 m/s 0.0 mm 22.6° 1007.1 hPa 2.9 m/s
22:00 19.4° 1008.0 hPa 1.2 m/s 0.0 mm 20.3° 1006.9 hPa 2.7 m/s 0.0 mm 20.1° 1008.2 hPa 1.1 m/s 0.0 mm 19.0° 1008.4 hPa 1.3 m/s 0.0 mm 18.0° 1007.5 hPa 1.8 m/s
 05:17     21:09    Daglengte: 15:52 Morgen
01:00 17.3° 1007.8 hPa 1.8 m/s 0.0 mm 17.8° 1006.6 hPa 2.8 m/s 0.0 mm 17.8° 1007.9 hPa 0.9 m/s 0.0 mm 16.6° 1008.0 hPa 1.8 m/s 0.0 mm 17.7° 1007.7 hPa 1.2 m/s
04:00 16.3° 1006.9 hPa 1.7 m/s 0.0 mm 15.9° 1005.8 hPa 2.8 m/s 0.0 mm 16.8° 1007.1 hPa 1.1 m/s 0.2 mm 15.2° 1007.2 hPa 1.9 m/s 0.0 mm 15.7° 1006.7 hPa 1.5 m/s
07:00 16.3° 1006.9 hPa 1.3 m/s 0.0 mm 16.3° 1006.0 hPa 2.2 m/s 0.0 mm 16.6° 1007.3 hPa 0.7 m/s 0.0 mm 15.7° 1007.0 hPa 1.3 m/s 0.0 mm 16.3° 1006.7 hPa 1.3 m/s
10:00 19.4° 1006.9 hPa 1.0 m/s 0.0 mm 19.9° 1005.9 hPa 1.7 m/s 0.0 mm 19.3° 1007.2 hPa 0.9 m/s 0.0 mm 20.0° 1007.0 hPa 0.5 m/s 0.0 mm 19.5° 1006.3 hPa 1.1 m/s
13:00 21.9° 1006.0 hPa 2.0 m/s 0.0 mm 22.6° 1005.3 hPa 2.3 m/s 0.0 mm 20.9° 1006.8 hPa 2.1 m/s 0.0 mm 22.7° 1006.0 hPa 0.5 m/s 0.0 mm 20.7° 1006.2 hPa 2.5 m/s
16:00 22.0° 1005.1 hPa 2.4 m/s 0.0 mm 21.5° 1004.1 hPa 2.6 m/s 1.4 mm 18.6° 1006.1 hPa 2.6 m/s 1.5 mm 23.0° 1005.1 hPa 0.6 m/s 0.0 mm 21.1° 1005.1 hPa 2.8 m/s
19:00 19.0° 1004.9 hPa 2.1 m/s 0.9 mm 17.2° 1004.8 hPa 5.2 m/s 34.1 mm 18.3° 1005.2 hPa 1.6 m/s 1.1 mm 21.2° 1005.0 hPa 3.2 m/s 0.0 mm 20.6° 1004.0 hPa 2.0 m/s
22:00 17.2° 1005.1 hPa 2.2 m/s 0.0 mm 17.7° 1004.1 hPa 3.2 m/s 101.2 mm 16.8° 1005.1 hPa 0.9 m/s 0.0 mm 18.2° 1006.2 hPa 3.5 m/s 0.0 mm 16.5° 1004.5 hPa 1.7 m/s
 05:18     21:07    Daglengte: 15:49 Woensdag 28 Jul
01:00 16.6° 1004.1 hPa 2.0 m/s 0.0 mm 16.3° 1003.7 hPa 3.4 m/s 102.7 mm 15.6° 1003.8 hPa 0.9 m/s 0.0 mm 16.9° 1006.3 hPa 5.2 m/s 0.0 mm 16.0° 1003.5 hPa 2.1 m/s
04:00 15.4° 1003.4 hPa 4.2 m/s 15.0 mm 15.3° 1002.9 hPa 4.0 m/s 103.0 mm 15.4° 1003.0 hPa 1.1 m/s 1.0 mm 15.4° 1006.5 hPa 6.4 m/s 0.0 mm 14.5° 1002.9 hPa 3.2 m/s
07:00 14.6° 1003.6 hPa 5.2 m/s 0.0 mm 14.9° 1003.1 hPa 4.0 m/s 103.4 mm 15.4° 1002.5 hPa 3.6 m/s 0.0 mm 14.5° 1007.7 hPa 6.1 m/s 0.0 mm 14.4° 1002.7 hPa 5.7 m/s
10:00 16.6° 1003.3 hPa 5.1 m/s 11.6 mm 16.9° 1003.2 hPa 4.0 m/s 103.4 mm 17.1° 1003.6 hPa 5.2 m/s 0.0 mm 15.6° 1003.1 hPa 6.0 m/s
13:00 18.2° 1002.9 hPa 5.6 m/s 11.6 mm 19.7° 1001.6 hPa 4.8 m/s 103.4 mm 18.4° 1003.2 hPa 5.7 m/s 0.0 mm 19.9° 1002.4 hPa 5.9 m/s
16:00 17.5° 1002.3 hPa 5.2 m/s 24.0 mm 17.0° 1001.1 hPa 5.7 m/s 106.3 mm 18.1° 1003.5 hPa 5.2 m/s 0.2 mm 17.7° 1001.1 hPa 5.8 m/s
19:00 15.8° 1001.9 hPa 4.6 m/s 12.4 mm 15.3° 1001.0 hPa 4.6 m/s 109.9 mm 15.8° 1003.6 hPa 4.6 m/s 0.0 mm 15.3° 1001.0 hPa 6.1 m/s
22:00 13.6° 1002.4 hPa 3.7 m/s 0.0 mm 14.5° 1001.5 hPa 3.2 m/s 111.3 mm 13.3° 1004.3 hPa 3.6 m/s 0.0 mm 12.2° 1001.8 hPa 5.1 m/s
 05:20     21:06    Daglengte: 15:46 Donderdag 29 Jul
01:00 12.4° 1002.1 hPa 5.2 m/s 12.5 mm 12.1° 1000.8 hPa 5.4 m/s 111.7 mm 12.4° 1004.4 hPa 3.6 m/s 0.0 mm 10.9° 1002.0 hPa 6.1 m/s
04:00 12.2° 1001.9 hPa 4.6 m/s 0.0 mm 11.3° 1000.2 hPa 4.3 m/s 111.7 mm 12.2° 1004.3 hPa 3.6 m/s 0.0 mm 11.8° 1002.3 hPa 6.7 m/s
07:00 13.0° 1002.5 hPa 5.8 m/s 0.0 mm 13.8° 1000.2 hPa 5.6 m/s 111.7 mm 12.6° 1005.3 hPa 5.2 m/s 0.0 mm 12.9° 1002.8 hPa 7.1 m/s
10:00 15.8° 1005.3 hPa 5.9 m/s 0.0 mm 16.6° 1000.9 hPa 8.0 m/s 111.7 mm 15.7° 1006.4 hPa 5.4 m/s 0.0 mm 13.6° 1004.2 hPa 8.1 m/s
13:00 18.6° 1005.7 hPa 6.3 m/s 0.0 mm 17.8° 1003.0 hPa 9.4 m/s 111.8 mm 18.8° 1006.4 hPa 5.5 m/s 0.0 mm 17.7° 1005.5 hPa 8.0 m/s
16:00 15.8° 1007.0 hPa 6.7 m/s 11.1 mm 15.8° 1007.0 hPa 6.7 m/s 11.1 mm
19:00 15.0° 1007.5 hPa 5.5 m/s 11.1 mm 15.0° 1007.5 hPa 5.5 m/s 11.1 mm
22:00 14.4° 1008.3 hPa 4.1 m/s 11.1 mm 14.4° 1008.3 hPa 4.1 m/s 11.1 mm
 05:22     21:04    Daglengte: 15:42 Vrijdag 30 Jul
01:00 14.3° 1008.7 hPa 3.6 m/s 11.1 mm 14.3° 1008.7 hPa 3.6 m/s 11.1 mm
04:00 14.0° 1008.0 hPa 2.7 m/s 11.1 mm 14.0° 1008.0 hPa 2.7 m/s 11.1 mm
07:00 14.9° 1008.1 hPa 1.9 m/s 11.1 mm 14.9° 1008.1 hPa 1.9 m/s 11.1 mm
10:00 17.5° 1007.5 hPa 1.6 m/s 11.1 mm 17.5° 1007.5 hPa 1.6 m/s 11.1 mm
13:00 16.7° 1006.5 hPa 2.3 m/s 11.2 mm 16.7° 1006.5 hPa 2.3 m/s 11.2 mm
16:00 16.5° 1005.6 hPa 2.3 m/s 11.9 mm 16.5° 1005.6 hPa 2.3 m/s 11.9 mm
19:00 15.2° 1004.4 hPa 1.6 m/s 13.6 mm 15.2° 1004.4 hPa 1.6 m/s 13.6 mm
22:00 14.2° 1004.1 hPa 2.0 m/s 15.9 mm 14.2° 1004.1 hPa 2.0 m/s 15.9 mm
 05:23     21:02    Daglengte: 15:39 Zaterdag 31 Jul
01:00 13.5° 1003.8 hPa 1.8 m/s 17.6 mm 13.5° 1003.8 hPa 1.8 m/s 17.6 mm
04:00 13.9° 1003.1 hPa 3.5 m/s 18.9 mm 13.9° 1003.1 hPa 3.5 m/s 18.9 mm
07:00 13.7° 1004.2 hPa 4.0 m/s 21.7 mm 13.7° 1004.2 hPa 4.0 m/s 21.7 mm
10:00 15.9° 1005.1 hPa 3.3 m/s 22.2 mm 15.9° 1005.1 hPa 3.3 m/s 22.2 mm
13:00 17.8° 1005.7 hPa 2.7 m/s 23.6 mm 17.8° 1005.7 hPa 2.7 m/s 23.6 mm
16:00 14.8° 1006.8 hPa 4.1 m/s 26.5 mm 14.8° 1006.8 hPa 4.1 m/s 26.5 mm
19:00 15.7° 1007.2 hPa 4.1 m/s 26.8 mm 15.7° 1007.2 hPa 4.1 m/s 26.8 mm
22:00 11.7° 1008.3 hPa 1.7 m/s 26.8 mm 11.7° 1008.3 hPa 1.7 m/s 26.8 mm
 05:25     21:00    Daglengte: 15:35 Zondag 01 Aug
01:00 12.4° 1008.2 hPa 0.8 m/s 27.0 mm 12.4° 1008.2 hPa 0.8 m/s 27.0 mm
04:00 12.2° 1008.2 hPa 1.6 m/s 27.1 mm 12.2° 1008.2 hPa 1.6 m/s 27.1 mm
07:00 12.1° 1009.1 hPa 2.0 m/s 27.3 mm 12.1° 1009.1 hPa 2.0 m/s 27.3 mm
10:00 13.9° 1010.1 hPa 2.5 m/s 27.4 mm 13.9° 1010.1 hPa 2.5 m/s 27.4 mm
13:00 16.7° 1010.7 hPa 3.0 m/s 27.7 mm 16.7° 1010.7 hPa 3.0 m/s 27.7 mm
16:00 16.2° 1011.6 hPa 1.9 m/s 28.0 mm 16.2° 1011.6 hPa 1.9 m/s 28.0 mm
19:00 14.9° 1012.7 hPa 0.8 m/s 28.2 mm 14.9° 1012.7 hPa 0.8 m/s 28.2 mm
22:00 14.0° 1013.8 hPa 0.4 m/s 28.3 mm 14.0° 1013.8 hPa 0.4 m/s 28.3 mm
 05:26     20:59    Daglengte: 15:33 Maandag 02 Aug
01:00 12.6° 1014.3 hPa 1.5 m/s 28.3 mm 12.6° 1014.3 hPa 1.5 m/s 28.3 mm
04:00 10.3° 1014.5 hPa 2.7 m/s 28.3 mm 10.3° 1014.5 hPa 2.7 m/s 28.3 mm
07:00 11.5° 1014.9 hPa 4.0 m/s 28.3 mm 11.5° 1014.9 hPa 4.0 m/s 28.3 mm
10:00 15.0° 1015.2 hPa 5.2 m/s 28.3 mm 15.0° 1015.2 hPa 5.2 m/s 28.3 mm
13:00 16.7° 1015.1 hPa 5.3 m/s 28.3 mm 16.7° 1015.1 hPa 5.3 m/s 28.3 mm
19:00 16.6° 1014.0 hPa 4.6 m/s 28.3 mm 16.6° 1014.0 hPa 4.6 m/s 28.3 mm
 05:28     20:57    Daglengte: 15:29 Dinsdag 03 Aug
01:00 12.1° 1014.2 hPa 2.2 m/s 28.3 mm 12.1° 1014.2 hPa 2.2 m/s 28.3 mm
07:00 13.5° 1011.8 hPa 3.3 m/s 28.3 mm 13.5° 1011.8 hPa 3.3 m/s 28.3 mm
13:00 17.5° 1008.6 hPa 6.8 m/s 29.8 mm 17.5° 1008.6 hPa 6.8 m/s 29.8 mm
19:00 18.4° 1006.4 hPa 5.9 m/s 31.2 mm 18.4° 1006.4 hPa 5.9 m/s 31.2 mm
 05:30     20:55    Daglengte: 15:25 Woensdag 04 Aug
01:00 15.4° 1004.9 hPa 6.5 m/s 31.3 mm 15.4° 1004.9 hPa 6.5 m/s 31.3 mm
07:00 13.6° 1004.4 hPa 6.0 m/s 31.7 mm 13.6° 1004.4 hPa 6.0 m/s 31.7 mm
13:00 19.1° 1004.9 hPa 7.5 m/s 31.7 mm 19.1° 1004.9 hPa 7.5 m/s 31.7 mm
19:00 18.4° 1005.2 hPa 5.1 m/s 31.7 mm 18.4° 1005.2 hPa 5.1 m/s 31.7 mm
 05:31     20:53    Daglengte: 15:22 Donderdag 05 Aug
01:00 13.3° 1005.6 hPa 3.9 m/s 31.7 mm 13.3° 1005.6 hPa 3.9 m/s 31.7 mm
07:00 13.9° 1004.1 hPa 2.9 m/s 31.8 mm 13.9° 1004.1 hPa 2.9 m/s 31.8 mm
13:00 18.5° 1006.9 hPa 3.0 m/s 0.0 mm
19:00 17.7° 1006.1 hPa 2.6 m/s 1.8 mm
 05:33     20:51    Daglengte: 15:18 Vrijdag 06 Aug
01:00 13.5° 1007.1 hPa 2.2 m/s 0.7 mm
07:00 13.1° 1006.9 hPa 2.2 m/s 0.2 mm
13:00 18.4° 1006.8 hPa 2.5 m/s 0.9 mm
19:00 17.1° 1006.6 hPa 3.0 m/s 1.6 mm
 05:35     20:49    Daglengte: 15:14 Zaterdag 07 Aug
01:00 13.4° 1007.9 hPa 2.3 m/s 0.6 mm
07:00 13.2° 1008.1 hPa 2.7 m/s 0.4 mm
13:00 17.9° 1008.7 hPa 3.9 m/s 0.8 mm
19:00 17.0° 1008.6 hPa 4.0 m/s 1.3 mm
 05:37     20:47    Daglengte: 15:10 Zondag 08 Aug
01:00 13.1° 1009.5 hPa 2.5 m/s 0.5 mm
07:00 13.2° 1009.0 hPa 3.0 m/s 0.4 mm
13:00 18.1° 1009.5 hPa 4.0 m/s 0.8 mm
19:00 16.9° 1009.6 hPa 3.6 m/s 1.4 mm
 05:38     20:45    Daglengte: 15:07 Maandag 09 Aug
01:00 13.3° 1010.9 hPa 3.2 m/s 0.7 mm
07:00 13.0° 1011.1 hPa 3.4 m/s 0.5 mm
13:00 18.4° 1012.4 hPa 4.1 m/s 0.5 mm
19:00 17.6° 1012.9 hPa 3.7 m/s 0.5 mm
 05:40     20:43    Daglengte: 15:03 Dinsdag 10 Aug
01:00 13.4° 1014.4 hPa 2.7 m/s 0.4 mm
07:00 13.3° 1014.1 hPa 2.8 m/s 0.6 mm
13:00 19.0° 1014.4 hPa 3.4 m/s 0.5 mm
FMI Hirlam - 7.5 km EWN WRFDA - 12 km DWD ICON - 7 km GFS - 25 km Basiskaart






























































Updatetijd (Europe/Amsterdam) Resolutie Lengte Stap
FMI Hirlam 14:00, 20:00, 02:00, 08:00 7.5 km 49h 1h
EWN WRFDA 10:30, 16:30, 22:30, 04:30 12 km 73h 1h
DWD ICON 11:45, 17:45, 23:45, 05:45 7 km 75h 1h
GFS 14:15, 20:15, 02:15, 08:15 25 km 237h 3h
30+ mm
25-30 mm
20-25 mm
15-20 mm
10-15 mm
6-10 mm
4-6 mm
2-4 mm
1-2 mm
0.5-1 mm
0.2-0.5 mm
0.1-0.2 mm
30+ mm
25-30 mm
20-25 mm
15-20 mm
10-15 mm
6-10 mm
4-6 mm
2-4 mm
1-2 mm
0.5-1 mm
0.2-0.5 mm
0.1-0.2 mm
Sneeuwval
Natte sneeuw
Hagel
Vorst
30+ mm
25-30 mm
20-25 mm
15-20 mm
10-15 mm
6-10 mm
4-6 mm
2-4 mm
1-2 mm
0.5-1 mm
0.2-0.5 mm
0.1-0.2 mm
Sneeuwval
Natte sneeuw
Hagel
Vorst
Onweer
50 mm
40 mm
30 mm
26 mm
22 mm
18 mm
14 mm
10 mm
9 mm
8 mm
7 mm
6 mm
5 mm
4.5 mm
4 mm
3.5 mm
3 mm
2.5 mm
2 mm
1.5 mm
1 mm
0.8 mm
0.6 mm
0.4 mm
0.2 mm
0.05 mm
35°
30°
25°
20°
15°
10°
-5°
-10°
-15°
-20°
-25°
-30°
-35°
33> m/s
29 m/s
25 m/s
21 m/s
17 m/s
14 m/s
11 m/s
8 m/s
5 m/s
3 m/s
0 m/s
2600 J/kg
2400 J/kg
2200 J/kg
2000 J/kg
1800 J/kg
1600 J/kg
1400 J/kg
1200 J/kg
1000 J/kg
800 J/kg
600 J/kg
400 J/kg
200 J/kg
70 dBZ
65 dBZ
60 dBZ
55 dBZ
50 dBZ
45 dBZ
40 dBZ
35 dBZ
30 dBZ
25 dBZ
20 dBZ
15 dBZ
10 dBZ
5 dBZ
-1 K
-2 K
-3 K
-4 K
-5 K
-6 K
-7 K
-8 K
-9 K